Regional Weather Roundup
Issued by NWS San Angelo, TX

Home | Current Version | Previous Version | Text Only | Print | Product List | Glossary On
Versions: 1 2 3 4 5 6 7 8 9 10 11 12 13 14 15 16 17 18 19 20 21 22 23 24 25 26 27 28 29 30 31 32 33 34 35 36 37 38 39 40 41 42 43 44 45 46 47 48 49 50
000
ASUS44 KSJT 280610
RWRSJT
WEST CENTRAL TEXAS REGIONAL WEATHER ROUNDUP
NATIONAL WEATHER SERVICE SAN ANGELO TX
100 AM CDT FRI AUG 28 2015

NOTE: "FAIR" INDICATES FEW OR NO CLOUDS BELOW 12,000 FEET WITH NO
SIGNIFICANT WEATHER AND/OR OBSTRUCTIONS TO VISIBILITY.

TXZ049-054-064>066-071>073-076>078-098-099-113-114-127-128-139-140-
154-155-168>170-280700
...LOCATIONS ACROSS WEST CENTRAL TEXAS...

CITY           SKY/WX    TMP DP  RH WIND       PRES   REMARKS
SAN ANGELO     FAIR      81  59  47 S9        30.02S
ABILENE        FAIR      79  60  52 SE13      30.01F
DYESS AFB      FAIR      82  62  50 S13       29.99F
JUNCTION       FAIR      79  62  56 CALM      30.05S
SWEETWATER     FAIR      80  60  49 SE13      30.05S
BROWNWOOD      NOT AVBL
COLEMAN        FAIR      79  61  54 S8        30.03S
SONORA         FAIR      79  59  50 S3        30.10S
OZONA          FAIR      77  55  47 S5        30.08F
BRADY          CLEAR     81  61  50 SE6       30.04F
$$

TEXAS PANHANDLE/OKLAHOMA PANHANDLE

CITY           SKY/WX    TMP DP  RH WIND       PRES   REMARKS
AMARILLO       FAIR      70  54  56 S10       30.04S
BORGER         FAIR      76  54  46 VRB7      30.00R
CANADIAN       FAIR      81  56  42 S17G23    29.94R
DALHART        CLOUDY    74  58  57 NE8       30.07S
DUMAS          FAIR      74  57  54 W7        30.07R
GUYMON         NOT AVBL
HEREFORD       FAIR      69  62  76 MISG      30.06S
PAMPA          FAIR      77  55  45 SW12      30.01S
PERRYTON       MOCLDY    78  61  57 NW10      30.02R
$$

SOUTHERN PANHANDLE/SOUTH PLAINS/ROLLING PLAINS

CITY           SKY/WX    TMP DP  RH WIND       PRES   REMARKS
LUBBOCK        MOCLDY    81  50  33 SE12      30.03F
SNYDER         FAIR      80  59  47 SE14G20   30.02F
CHILDRESS      FAIR      84  60  44 S14G21    29.96S
SEMINOLE       FAIR      74  51  45 S8        30.07S
$$

PERMIAN BASIN

CITY           SKY/WX    TMP DP  RH WIND       PRES   REMARKS
MIDLAND        FAIR      82  55  39 S14       30.04S
ODESSA         FAIR      82  53  36 S14       30.05F
WINK           FAIR      83  52  34 S14G23    30.02S
$$

FAR WEST/SOUTHWEST MOUNTAINS/TRANS PECOS

CITY           SKY/WX    TMP DP  RH WIND       PRES   REMARKS
ALPINE         FAIR      75  53  45 SE12      30.21F
DRYDEN           N/A     85  58  39 SE13      30.02F
EL PASO        MOCLDY    84  56  38 CALM      30.07F
FORT STOCKTON  FAIR      80  54  40 S14       30.06S
GUADALUPE PASS MOCLDY    75  46  35 NE16      30.21F
MARFA          FAIR      72  52  49 E7        30.20F
PECOS          FAIR      82  53  37 SE12      30.02S
$$

DALLAS/FORT WORTH METROPLEX

CITY           SKY/WX    TMP DP  RH WIND       PRES   REMARKS
DFW AIRPORT    FAIR      76  63  64 SE6       30.00R
FTW MEACHAM    FAIR      77  61  57 S7        30.00S
DAL-EXECUTIVE  FAIR      77  61  57 SE9       30.00F
GRAND PRAIRIE  FAIR      78  63  60 SE5       30.02S
ADDISON        FAIR      78  64  61 SE7       30.02S
MESQUITE       FAIR      73  63  70 SE5       30.01S
LANCASTER      FAIR      74  59  59 CALM      30.02S
$$

NORTH CENTRAL TEXAS

CITY           SKY/WX    TMP DP  RH WIND       PRES   REMARKS
SHRMAN/DENISON FAIR      77  65  67 SE9       30.02S
GAINESVILLE    FAIR      74  61  63 SE6       30.01F
BRIDGEPORT     FAIR      78  62  57 S9        30.01F
DENTON         FAIR      76  60  57 SE8       29.99F
WAXAHACHIE     FAIR      74  62  66 SE3       30.03S
GRANBURY       FAIR      77  63  60 E7        30.02S
$$

WESTERN NORTH TEXAS

CITY           SKY/WX    TMP DP  RH WIND       PRES   REMARKS
WICHITA FALLS  FAIR      79  62  56 S18       29.96S
VERNON         FAIR      85  55  35 S16       29.95F
BRECKENRIDGE   FAIR      80  57  45 SE14      29.99S
COMANCHE       FAIR      73  60  63 SE7       30.03S
$$

CENTRAL AND SOUTH CENTRAL TEXAS

CITY           SKY/WX    TMP DP  RH WIND       PRES   REMARKS
AUSTIN/BERGSTM FAIR      68  63  84 CALM      30.01S
WACO           FAIR      79  59  50 SE10      30.01S
HILLSBORO      FAIR      75  58  54 SE8       30.01S
TEMPLE         FAIR      73  61  64 S7        30.04R
KILLEEN-GRAY   CLEAR     74  60  61 S5        30.01F
FORT HOOD      FAIR      77  61  58 SE5       30.01S
GEORGETOWN     FAIR      79  57  47 S6        30.03S
LAGO VISTA     FAIR      79  57  46 S7        30.05S
SAN MARCOS     FAIR      75  61  60 SW5       30.03F
NEW BRAUNFELS  FAIR      74  63  68 SW5       30.01F
RANDOLPH AFB   FAIR      75  64  67 S3        30.03S
SAN ANTONIO    FAIR      80  63  55 S9        30.03F
STINSON        FAIR      76  63  64 S5        30.01S
PLEASANTON     NOT AVBL
LA GRANGE      FAIR      78  66  66 CALM      29.99S
GIDDINGS       FAIR      71  64  77 CALM      30.05S
$$

EAST TEXAS

CITY           SKY/WX    TMP DP  RH WIND       PRES   REMARKS
PARIS          FAIR      70  61  73 SE7       30.03S
CLARKSVILLE    NOT AVBL
TYLER          FAIR      73  66  78 E3        30.01F
LONGVIEW       FAIR      73  66  78 E7        30.02S
PALESTINE      FAIR      76  65  66 E7        30.02S
NACOGDOCHES    FAIR      66  64  94 CALM      30.01F
$$

TEXAS HILL COUNTRY AND EDWARDS PLATEAU

CITY           SKY/WX    TMP DP  RH WIND       PRES   REMARKS
LLANO          FAIR      77  57  50 CALM      30.06S
HORSESHOE BAY  FAIR      80  58  46 S8        30.03S
KERRVILLE      FAIR      76  62  62 SE5       30.06F
FREDERICKSBRG  FAIR      77  56  48 CALM      30.06F
ROCKSPRINGS    FAIR      75  59  57 S7        30.10S
HONDO          FAIR      78  61  55 SE9       30.04S
UVALDE         FAIR      78  58  50 SE7       30.03R
DEL RIO        FAIR      82  59  45 SE7       29.98S
$$

SOUTHEAST TEXAS

CITY           SKY/WX    TMP DP  RH WIND       PRES   REMARKS
COLLEGE STN    FAIR      76  66  71 E3        30.00F
CALDWELL       FAIR      72  70  94 CALM      30.03F
CROCKETT       FAIR      66  64  94 CALM      30.03F
BRENHAM        FAIR      73  71  92 CALM      30.00F
HUNTSVILLE     FAIR      73  63  70 CALM      30.01F
CONROE         FAIR      70  67  90 CALM      30.02R
HOUSTON BUSH   MOCLDY    72  67  84 CALM      30.00F
HOUSTON HOBBY  FAIR      74  67  78 CALM      29.99F
PERLAND        FAIR      74  68  81 CALM      30.01F
WHARTON        FAIR      72  69  92 CALM      30.01F
$$

THE UPPER TEXAS COAST

CITY           SKY/WX    TMP DP  RH WIND       PRES   REMARKS
ORANGE         FAIR     N/A N/A N/A CALM      30.00F
PORT ARTHUR    FAIR      71  69  93 SW5       29.98F
GALVESTON      FAIR      81  71  71 CALM      30.00F
ANGLETON       FAIR      71  69  93 CALM      30.00F
BAY CITY       FAIR      73  72  95 CALM      30.00F
$$

TEXAS COASTAL BEND, RIO GRANDE PLAINS DEEP SOUTH TEXAS

CITY           SKY/WX    TMP DP  RH WIND       PRES   REMARKS
VICTORIA       FAIR      73  67  81 S5        30.00F
BEEVILLE       FAIR      74  69  82 S3        30.01S
ROCKPORT       FAIR      81  65  58 S6        29.99F
PORT ARANSAS   FAIR      81  68  64 SE8       29.99F
PORT LAVACA    NOT AVBL
CORPUS CHRISTI MOCLDY    75  64  68 S3        30.00F
KINGSVILLE NAS FAIR      73  69  87 S6        30.01F
COTULLA        FAIR      79  63  57 S8        30.01S
LAREDO         FAIR      79  60  51 S8        30.03S
BROWNSVILLE    MOCLDY    75  69  81 NE3       30.00S
PORT ISABEL    FAIR      79  71  76 NE5       29.99F
HEBBRONVILLE   NOT AVBL
MCALLEN        FAIR      76  69  79 SE3       30.01F
WESLACO        FAIR      73  67  83 CALM      30.00F
FALFURRIAS     FAIR      73  66  79 CALM      30.01S
EDINBURG       FAIR      73  65  78 CALM      30.01F
$$


USA.gov is the U.S. government's official web portal to all federal, state and local government web resources and services.